Weather History for Bartlesville, OK

Change the Weather History Date:

Tuesday, November 27, 2012

  Actual Average Record
Temperature  
Mean Temperature 34 °F -  
Max Temperature 46 °F 53 °F 77 °F (1960)
Min Temperature 23 °F 32 °F 9 °F (1975)
Degree Days  
Heating Degree Days 30    
Moisture  
Dew Point 22 °F    
Average Humidity 73    
Maximum Humidity 92    
Minimum Humidity 36    
Precipitation  
Precipitation 0.00 in - - ()
Sea Level Pressure  
Sea Level Pressure 30.42 in    
Wind  
Wind Speed 4 mph (SE)    
Max Wind Speed 8 mph    
Max Gust Speed -    
Visibility 10 miles    
Events      
Averages and records for this station are not official NWS values.
T = Trace of Precipitation, MM = Missing Value Source: NWS Daily Summary

Daily Weather History Graph

Daily Weather History Graph

Search for Another Location

Airport:

Trip Planner

Search our weather history database for the weather conditions in past years. The results will help you decide how hot, cold, wet, or windy it might be!

Date:

Astronomy

Nov. 27, 2012 Rise Set
Actual Time 7:14 AM CST 5:08 PM CST
Civil Twilight 6:46 AM CST 5:37 PM CST
Nautical Twilight 6:14 AM CST 6:08 PM CST
Astronomical Twilight 5:43 AM CST 6:40 PM CST
Moon 4:40 PM CST (11/27) 6:21 AM CST (11/27)
Length of Visible Light 10h 50m
Length of Day
9h 54m
Waxing Gibbous, 99% of the Moon is Illuminated
Nov 27
Waxing Gibbous
Nov 28
Full
Dec 6
Last Quarter
Dec 13
New
Dec 19
First Quarter

Hourly Weather History & Observations

Time (CST) Temp. Windchill Dew Point Humidity Pressure Visibility Wind Dir Wind Speed Gust Speed Precip Events Conditions
12:53 AM 30.0 °F 24.1 °F 26.1 °F 85% 30.45 in 10.0 mi North 5.8 mph - N/A   Clear
1:53 AM 28.9 °F 21.1 °F 25.0 °F 85% 30.45 in 9.0 mi North 8.1 mph - N/A   Clear
2:53 AM 28.0 °F 21.7 °F 25.0 °F 88% 30.45 in 9.0 mi North 5.8 mph - N/A   Clear
3:53 AM 26.1 °F 21.9 °F 23.0 °F 88% 30.45 in 9.0 mi Variable 3.5 mph - N/A   Clear
4:53 AM 24.1 °F 18.2 °F 21.9 °F 91% 30.45 in 9.0 mi North 4.6 mph - N/A   Clear
5:53 AM 23.0 °F 18.4 °F 21.0 °F 92% 30.47 in 8.0 mi Variable 3.5 mph - N/A   Clear
6:53 AM 23.0 °F - 19.9 °F 88% 30.49 in 9.0 mi Calm Calm - N/A   Clear
7:53 AM 24.1 °F - 21.0 °F 88% 30.49 in 5.0 mi Calm Calm - N/A   Clear
8:53 AM 28.9 °F 23.9 °F 23.0 °F 78% 30.52 in 10.0 mi NNE 4.6 mph - N/A   Clear
9:53 AM 30.9 °F 27.5 °F 24.1 °F 76% 30.51 in 10.0 mi SE 3.5 mph - N/A   Clear
10:53 AM 35.1 °F - 23.0 °F 61% 30.52 in 10.0 mi Calm Calm - N/A   Clear
11:53 AM 39.0 °F - 23.0 °F 53% 30.47 in 10.0 mi Calm Calm - N/A   Clear
12:53 PM 42.1 °F 39.2 °F 23.0 °F 47% 30.43 in 10.0 mi SE 4.6 mph - N/A   Clear
1:53 PM 45.0 °F 41.8 °F 19.9 °F 37% 30.38 in 10.0 mi South 5.8 mph - N/A   Clear
2:53 PM 46.9 °F - 21.0 °F 36% 30.35 in 10.0 mi SSW 5.8 mph - N/A   Clear
3:53 PM 46.0 °F 43.9 °F 21.0 °F 37% 30.33 in 10.0 mi South 4.6 mph - N/A   Clear
4:53 PM 42.1 °F 39.2 °F 23.0 °F 47% 30.33 in 10.0 mi SSE 4.6 mph - N/A   Clear
5:53 PM 35.1 °F 32.2 °F 24.1 °F 64% 30.33 in 10.0 mi South 3.5 mph - N/A   Clear
6:53 PM 30.0 °F - 23.0 °F 75% 30.35 in 10.0 mi Calm Calm - N/A   Clear
7:53 PM 27.0 °F - 23.0 °F 85% 30.35 in 10.0 mi Calm Calm - N/A   Clear
8:53 PM 25.0 °F - 21.9 °F 88% 30.35 in 10.0 mi Calm Calm - N/A   Clear
9:53 PM 24.1 °F - 21.0 °F 88% 30.37 in 10.0 mi Calm Calm - N/A   Clear
10:53 PM 23.0 °F - 21.0 °F 92% 30.38 in 10.0 mi Calm Calm - N/A   Clear
11:53 PM 24.1 °F - 21.0 °F 88% 30.39 in 10.0 mi Calm Calm - N/A   Clear